Regional Weather Roundup
Issued by NWS Goodland, KS

Home | Current Version | Previous Version | Graphics & Text | Print | Product List | Glossary On
Versions: 1 2 3 4 5 6 7 8 9 10 11 12 13 14 15 16 17 18 19 20 21 22 23 24 25 26 27 28 29 30 31 32 33 34 35 36 37 38 39 40 41 42 43 44 45 46 47 48 49 50
000
ASUS43 KGLD 230508
RWRGLD

GOODLAND FORECAST AREA HOURLY WEATHER ROUNDUP
NATIONAL WEATHER SERVICE GOODLAND KS
1100 PM MDT TUE AUG 22 2017

...OFFICIAL OBSERVATIONS...

CITY           SKY/WX    TMP DP  RH WIND       PRES   REMARKS
GOODLAND KS    CLEAR     58  52  80 SE8       30.24R
HILL CITY KS   CLEAR     60  53  77 NE5       30.23R
IMPERIAL NEB   CLEAR     59  51  75 SE8       30.21S
MCCOOK NEB     CLEAR     63  55  75 SE8       30.21R
AKRON CO       CLOUDY    65  51  60 S15       30.23
BURLINGTON CO  CLEAR     60  56  86 SE10      30.26S
LIMON CO       CLEAR     59  55  87 SE3       30.30S
$$

...UNOFFICIAL OBSERVATIONS...

CITY           SKY/WX    TMP DP  RH WIND       PRES   REMARKS
LENORA KS        N/A     62  32  32 CALM        N/A
NORTON KS      CLEAR     59  48  67 E3        30.22S
TRENTON NEB      N/A     61  32  33 S6          N/A
KIT CARSON CO    N/A     61  55  81 CALM        N/A
YUMA CO        FAIR      61  45  55 S8        30.22S
$$




USA.gov is the U.S. government's official web portal to all federal, state and local government web resources and services.